Effective Sunday, March 17, 2024, the National Weather Service National Data Buoy Center will discontinue its Dial-A-Buoy Interactive Voice Response system. For more information, see Service Change Notice 24-06 (PDF).

Station OBGN6 - 8311030 - Ogdensburg, NY Image indicating link to RSS feed of recent meteorological observations for station OBGN6


Conditions at OBGN6 as of
(6:30 pm EST)
2330 GMT on 02/23/2024:
     

Click on the graph icon in the table below to see a time series plot of the last five days of that observation.

5-day plot - Atmospheric Pressure Atmospheric Pressure (PRES):1001.6 mb
5-day plot - Air Temperature Air Temperature (ATMP): -0.9 °C
NOS Water Level Observation Network Water Level
Previous observations
TIME
(EST)
5-day plot - Wind Direction
WDIR
 
5-day plot - Wind Speed
WSPD
m/s
5-day plot - Wind Gust
GST
m/s
5-day plot - Wave Height
WVHT
m
5-day plot - Dominant Wave Period
DPD
sec
5-day plot - Average Wave Period
APD
sec
5-day plot - Mean Wave Direction
MWD
 
5-day plot - Atmospheric Pressure
PRES
mb
5-day plot - Pressure Tendency
PTDY
mb
5-day plot - Air Temperature
ATMP
°C
5-day plot - Water Temperature
WTMP
°C
5-day plot - Dew Point
DEWP
°C
5-day plot - Salinity
SAL
psu
5-day plot - Visibility
VIS
km
5-day plot - Tide (above MLLW)
TIDE
m
2024-02-23 06:24 pm-------1001.4- -0.8-----
2024-02-23 06:00 pm-------1001.0 +3.6 -0.1-----
2024-02-23 05:54 pm-------1000.8- 0.1-----
2024-02-23 05:48 pm-------1000.5- 0.3-----
2024-02-23 05:42 pm-------1000.3- 0.6-----
2024-02-23 05:36 pm-------1000.1- 0.8-----
2024-02-23 05:30 pm-------999.9- 1.1-----
2024-02-23 05:24 pm-------999.7- 1.4-----
2024-02-23 05:18 pm-------999.6- 1.6-----
2024-02-23 05:12 pm-------999.4- 2.0-----
2024-02-23 05:06 pm-------999.1- 2.3-----
2024-02-23 05:00 pm-------998.8 +1.4 2.9-----
2024-02-23 04:54 pm-------998.7- 3.4-----
2024-02-23 04:48 pm-------998.6- 3.8-----
2024-02-23 04:42 pm-------998.4- 3.5-----
2024-02-23 04:36 pm-------998.1- 3.8-----
2024-02-23 04:30 pm-------998.0- 3.6-----
2024-02-23 04:24 pm-------997.9- 3.7-----
2024-02-23 04:18 pm-------997.9- 3.8-----
2024-02-23 04:12 pm-------997.8- 3.6-----
2024-02-23 04:06 pm-------997.8- 3.6-----
2024-02-23 04:00 pm-------997.8 +0.7 3.4-----
2024-02-23 03:54 pm-------997.7- 3.5-----
2024-02-23 03:48 pm-------997.7- 4.0-----
2024-02-23 03:42 pm-------997.6- 4.2-----
2024-02-23 03:36 pm-------997.5- 4.1-----
2024-02-23 03:30 pm-------997.5- 3.9-----
2024-02-23 03:24 pm-------997.4- 3.9-----
2024-02-23 03:18 pm-------997.4- 4.0-----
2024-02-23 03:12 pm-------997.4- 3.9-----
2024-02-23 03:06 pm-------997.4- 3.7-----
2024-02-23 03:00 pm-------997.4 -0.4 3.4-----
2024-02-23 02:54 pm-------997.3- 4.0-----
2024-02-23 02:48 pm-------997.2- 4.7-----
2024-02-23 02:42 pm-------997.1- 4.7-----
2024-02-23 02:36 pm-------997.1- 4.6-----
2024-02-23 02:30 pm-------997.1- 4.5-----
2024-02-23 02:24 pm-------997.3- 4.4-----
2024-02-23 02:18 pm-------997.4- 4.2-----
2024-02-23 02:12 pm-------997.4- 4.1-----
2024-02-23 02:06 pm-------997.4- 3.8-----
2024-02-23 02:00 pm-------997.4 -1.0 3.6-----
2024-02-23 01:54 pm-------997.4- 3.7-----
2024-02-23 01:48 pm-------997.3- 3.9-----
2024-02-23 01:42 pm-------997.3- 3.7-----
2024-02-23 01:36 pm-------997.3- 3.5-----
2024-02-23 01:30 pm-------997.2- 3.7-----
2024-02-23 01:24 pm-------997.1- 3.9-----
2024-02-23 01:18 pm-------997.1- 4.4-----
2024-02-23 01:12 pm-------996.9- 4.8-----
2024-02-23 01:06 pm-------997.0- 4.3-----
2024-02-23 01:00 pm-------997.1 -1.4 4.3-----
2024-02-23 12:54 pm-------997.2- 4.2-----
2024-02-23 12:48 pm-------997.3- 3.8-----
2024-02-23 12:42 pm-------997.3- 4.3-----
2024-02-23 12:36 pm-------997.4- 4.4-----
2024-02-23 12:30 pm-------997.4- 4.4-----
2024-02-23 12:24 pm-------997.5- 4.4-----
2024-02-23 12:18 pm-------997.6- 4.3-----
2024-02-23 12:12 pm-------997.6- 4.3-----
2024-02-23 12:06 pm-------997.7- 4.2-----
2024-02-23 12:00 pm-------997.8 -0.8 4.1-----
2024-02-23 11:54 am-------998.0- 4.1-----
2024-02-23 11:48 am-------998.1- 4.0-----
2024-02-23 11:42 am-------998.1- 4.0-----
2024-02-23 11:36 am-------998.2- 3.9-----
2024-02-23 11:30 am-------998.3- 3.4-----
2024-02-23 11:24 am-------998.4- 2.9-----
2024-02-23 11:18 am-------998.5- 2.9-----
2024-02-23 11:12 am-------998.5- 3.2-----
2024-02-23 11:06 am-------998.5- 3.7-----
2024-02-23 11:00 am-------998.4 -0.4 3.8-----
2024-02-23 10:54 am-------998.4- 3.6-----
2024-02-23 10:48 am-------998.5- 3.5-----
2024-02-23 10:42 am-------998.5- 3.2-----
2024-02-23 10:36 am-------998.4- 3.2-----
2024-02-23 10:30 am-------998.5- 3.6-----
2024-02-23 10:24 am-------998.5- 3.7-----
2024-02-23 10:18 am-------998.4- 3.6-----
2024-02-23 10:12 am-------998.4- 3.6-----
2024-02-23 10:06 am-------998.4- 3.5-----
2024-02-23 10:00 am-------998.5 +0.0 3.5-----
2024-02-23 09:54 am-------998.4- 3.5-----
2024-02-23 09:48 am-------998.4- 3.5-----
2024-02-23 09:42 am-------998.5- 3.4-----
2024-02-23 09:36 am-------998.4- 3.3-----
2024-02-23 09:30 am-------998.4- 3.3-----
2024-02-23 09:24 am-------998.6- 3.3-----
2024-02-23 09:18 am-------998.6- 3.3-----
2024-02-23 09:12 am-------998.5- 3.3-----
2024-02-23 09:06 am-------998.7- 3.2-----
2024-02-23 09:00 am-------998.6 +0.0 3.1-----
2024-02-23 08:54 am-------998.5- 3.1-----
2024-02-23 08:48 am-------998.5- 3.1-----
2024-02-23 08:42 am-------998.6- 3.1-----
2024-02-23 08:36 am-------998.6- 3.0-----
2024-02-23 08:30 am-------998.6- 2.9-----
2024-02-23 08:24 am-------998.5- 2.9-----
2024-02-23 08:18 am-------998.6- 2.9-----
2024-02-23 08:12 am-------998.8- 2.8-----
2024-02-23 08:06 am-------998.8- 2.6-----
2024-02-23 08:00 am-------998.8 -0.3 2.4-----
2024-02-23 07:54 am-------998.8- 2.5-----
2024-02-23 07:48 am-------998.7- 2.5-----
2024-02-23 07:42 am-------998.7- 2.5-----
2024-02-23 07:36 am-------998.6- 2.5-----
2024-02-23 07:30 am-------998.7- 2.5-----
2024-02-23 07:24 am-------998.7- 2.5-----
2024-02-23 07:18 am-------998.6- 2.5-----
2024-02-23 07:12 am-------998.6- 2.6-----
2024-02-23 07:06 am-------998.6- 2.6-----
2024-02-23 07:00 am-------998.6 +0.0 2.7-----
2024-02-23 06:54 am-------998.5- 2.7-----
2024-02-23 06:48 am-------998.6- 2.7-----
2024-02-23 06:42 am-------998.7- 2.8-----
2024-02-23 06:36 am-------998.7- 2.8-----
2024-02-23 06:30 am-------998.7- 2.8-----
2024-02-23 06:24 am-------998.8- 2.8-----
2024-02-23 06:18 am-------998.9- 2.8-----
2024-02-23 06:12 am-------998.9- 2.8-----
2024-02-23 06:06 am-------998.9- 2.8-----
2024-02-23 06:00 am-------998.8 -0.9 2.8-----
2024-02-23 05:54 am-------998.8- 2.8-----
2024-02-23 05:48 am-------998.9- 2.8-----
2024-02-23 05:42 am-------998.8- 2.8-----
2024-02-23 05:36 am-------998.9- 2.8-----
2024-02-23 05:30 am-------999.0- 2.8-----
2024-02-23 05:24 am-------999.0- 2.9-----
2024-02-23 05:18 am-------999.1- 2.7-----
2024-02-23 05:12 am-------999.1- 2.6-----
2024-02-23 05:06 am-------999.1- 2.6-----
2024-02-23 05:00 am-------999.1 -1.0 2.7-----
2024-02-23 04:54 am-------999.1- 2.9-----
2024-02-23 04:48 am-------999.0- 2.9-----
2024-02-23 04:42 am-------999.0- 2.9-----
2024-02-23 04:36 am-------999.0- 2.9-----
2024-02-23 04:30 am-------999.0- 2.9-----
2024-02-23 04:24 am-------999.0- 2.8-----
2024-02-23 04:18 am-------998.9- 2.8-----
2024-02-23 04:12 am-------998.8- 2.8-----
2024-02-23 04:06 am-------998.8- 2.8-----
2024-02-23 04:00 am-------998.7 -1.9 2.7-----
2024-02-23 03:54 am-------998.8- 2.7-----
2024-02-23 03:48 am-------998.8- 2.7-----
2024-02-23 03:42 am-------998.8- 2.7-----
2024-02-23 03:36 am-------998.8- 2.7-----
2024-02-23 03:30 am-------998.9- 2.6-----
2024-02-23 03:24 am-------999.0- 2.7-----
2024-02-23 03:18 am-------999.1- 2.7-----
2024-02-23 03:12 am-------999.3- 2.8-----
2024-02-23 03:06 am-------999.5- 2.8-----
2024-02-23 03:00 am-------999.7 -1.4 2.8-----
2024-02-23 02:54 am-------999.7- 2.8-----
2024-02-23 02:48 am-------999.7- 2.8-----
2024-02-23 02:42 am-------999.7- 2.8-----
2024-02-23 02:36 am-------999.8- 2.8-----
2024-02-23 02:30 am-------999.9- 2.9-----
2024-02-23 02:24 am-------999.9- 2.9-----
2024-02-23 02:18 am-------999.9- 2.9-----
2024-02-23 02:12 am-------1000.0- 2.9-----
2024-02-23 02:06 am-------1000.1- 2.8-----
2024-02-23 02:00 am-------1000.1 -1.6 2.8-----
2024-02-23 01:54 am-------1000.1- 2.8-----
2024-02-23 01:48 am-------1000.1- 2.8-----
2024-02-23 01:42 am-------1000.2- 2.8-----
2024-02-23 01:36 am-------1000.2- 2.8-----
2024-02-23 01:30 am-------1000.3- 2.8-----
2024-02-23 01:24 am-------1000.4- 2.9-----
2024-02-23 01:18 am-------1000.5- 2.9-----
2024-02-23 01:12 am-------1000.5- 2.9-----
2024-02-23 01:06 am-------1000.6- 2.8-----
2024-02-23 01:00 am-------1000.6 -1.5 2.9-----
2024-02-23 12:54 am-------1000.7- 2.8-----
2024-02-23 12:48 am-------1000.7- 2.8-----
2024-02-23 12:42 am-------1000.8- 2.8-----
2024-02-23 12:36 am-------1000.8- 2.8-----
2024-02-23 12:30 am-------1000.8- 2.8-----
2024-02-23 12:24 am-------1000.9- 2.8-----
2024-02-23 12:18 am-------1000.9- 2.8-----
2024-02-23 12:12 am-------1000.9- 2.8-----
2024-02-23 12:06 am-------1001.0- 2.9-----
2024-02-23 12:00 am-------1001.1 -1.5 2.9-----
2024-02-22 11:54 pm-------1001.2- 2.8-----
2024-02-22 11:48 pm-------1001.2- 2.8-----
2024-02-22 11:42 pm-------1001.3- 2.8-----
2024-02-22 11:36 pm-------1001.3- 2.8-----
2024-02-22 11:30 pm-------1001.4- 2.8-----
2024-02-22 11:24 pm-------1001.5- 2.8-----
2024-02-22 11:18 pm-------1001.5- 2.9-----
2024-02-22 11:12 pm-------1001.5- 2.8-----
2024-02-22 11:06 pm-------1001.6- 2.8-----
2024-02-22 11:00 pm-------1001.7 -1.0 2.8-----
2024-02-22 10:54 pm-------1001.7- 2.8-----
2024-02-22 10:48 pm-------1001.6- 2.8-----
2024-02-22 10:42 pm-------1001.6- 2.8-----
2024-02-22 10:36 pm-------1001.7- 2.8-----
2024-02-22 10:30 pm-------1001.9- 2.8-----
2024-02-22 10:24 pm-------1001.9- 2.8-----
2024-02-22 10:18 pm-------1002.0- 2.9-----
2024-02-22 10:12 pm-------1002.1- 2.9-----
2024-02-22 10:06 pm-------1002.1- 2.9-----
2024-02-22 10:00 pm-------1002.1 -0.7 2.9-----
2024-02-22 09:54 pm-------1002.2- 2.9-----
2024-02-22 09:48 pm-------1002.3- 2.9-----
2024-02-22 09:42 pm-------1002.4- 2.8-----
2024-02-22 09:36 pm-------1002.4- 2.8-----
2024-02-22 09:30 pm-------1002.4- 2.8-----
2024-02-22 09:24 pm-------1002.5- 2.8-----
2024-02-22 09:18 pm-------1002.6- 2.8-----
2024-02-22 09:12 pm-------1002.6- 2.7-----
2024-02-22 09:06 pm-------1002.6- 2.7-----
2024-02-22 09:00 pm-------1002.6 -0.6 2.7-----
2024-02-22 08:54 pm-------1002.6- 2.8-----
2024-02-22 08:48 pm-------1002.6- 2.8-----
2024-02-22 08:42 pm-------1002.6- 2.8-----
2024-02-22 08:36 pm-------1002.7- 2.8-----
2024-02-22 08:30 pm-------1002.7- 2.8-----
2024-02-22 08:24 pm-------1002.8- 2.8-----
2024-02-22 08:18 pm-------1002.8- 2.9-----
2024-02-22 08:12 pm-------1002.7- 2.9-----
2024-02-22 08:06 pm-------1002.7- 2.9-----
2024-02-22 08:00 pm-------1002.7 -0.7 2.9-----
2024-02-22 07:54 pm-------1002.8- 3.0-----
2024-02-22 07:48 pm-------1002.7- 3.0-----
2024-02-22 07:42 pm-------1002.8- 2.9-----
2024-02-22 07:36 pm-------1002.8- 3.0-----
2024-02-22 07:30 pm-------1002.8- 3.0-----
2024-02-22 07:24 pm-------1002.8- 3.0-----
2024-02-22 07:18 pm-------1002.8- 3.1-----
2024-02-22 07:12 pm-------1002.8- 3.1-----
2024-02-22 07:06 pm-------1002.8- 3.2-----
2024-02-22 07:00 pm-------1002.8 -0.8 3.3-----
2024-02-22 06:54 pm-------1002.8- 3.3-----